Location: Congrier
(47.8099°N, 1.1170°W)
Time: 13:22:56
(UTC+00:00)

Cosmos 2251 Rocket - Pass Details

Date: 28 January 2023
Orbit: 764 x 791 km, 74.0° (Epoch: 21 March)

Event Time Altitude Azimuth Distance (km) Brightness Sun altitude
Rises 18:27:35 0° 196° (SSW) 3,253 7.1 -15.0°
Reaches altitude 10° 18:29:57 10° 196° (SSW) 2,333 6.3 -15.4°
Maximum altitude 18:35:16 79° 110° (ESE) 807 3.5 -16.3°
Drops below altitude 10° 18:40:38 10° 25° (NNE) 2,364 5.7 -17.2°
Enters shadow 18:40:55 - 25° (NNE) 2,469 5.8 -17.2°
